Location: Peterborough
(44.3091°N, 78.3197°W)
Time: 01:22:53
(UTC-04:00)

Vanguard 1 Rocket - Pass Details

Date: 26 March 2023
Orbit: 655 x 4220 km, 34.3° (Epoch: 02 June)

Event Time Altitude Azimuth Distance (km) Brightness Sun altitude
Exits shadow 03:56:48 38° 165° (SSE) 2,272 9.1 -31.7°
Drops below altitude 10° 04:01:46 10° 131° (SE) 3,174 10.2 -31.1°
Sets 04:04:03 0° 124° (ESE) 3,855 10.8 -30.8°
